Tracking 35055 objects as of 18-Aug-2026
HD Live streaming from Space Station
objects crossing your sky now

COSMOS 860 COOLANT

Track COSMOS 860 COOLANT now!
10-day predictions


NORAD ID: 29195
Int'l Code: 1976-103H
Launch date: October 17, 1976
Source: Commonwealth of Independent States (former USSR) (CIS)
Launch site: TYURATAM MISSILE AND SPACE COMPLEX (TTMTR)

Note: This is SATELLITE DEBRIS
Your satellite tracking list
Your tracking list is empty




NASA's NSSDC Master Catalog

Two Line Element Set (TLE):
1 29195U 76103H   26229.20080049  .00000045  00000-0  11430-3 0  9998
2 29195  64.6964 201.8259 0054404 185.5782 174.4678 13.87318396648131
Source of the keplerian elements: AFSPC